Regional Weather Roundup
Issued by NWS

Home | Current Version | Previous Version | Graphics & Text | Print | Product List | Glossary On
Versions: 1 2 3 4 5 6 7 8 9 10 11 12 13 14 15 16 17 18 19 20 21 22 23 24 25 26 27 28 29 30 31 32 33 34 35 36 37 38 39 40 41 42 43 44
000
ASUS45 KBOI 252110
RWRID
WEATHER ROUNDUP FOR IDAHO
NATIONAL WEATHER SERVICE BOISE ID
200 PM MST THU DEC 25 2014

NOTE: "FAIR" INDICATES FEW OR NO CLOUDS BELOW 12000 FEET
WITH NO SIGNIFICANT WEATHER AND/OR OBSTRUCTIONS TO VISIBILITY

IDZ012-014-252200-
SOUTHWEST IDAHO


CITY           SKY/WX    TMP DP  RH WIND       PRES   REMARKS
BOISE          FAIR      36  23  59 NW21G30   29.93R WCI  25
CALDWELL       FAIR      37  21  52 SW22      29.99S WCI  27
MOUNTAIN HOME  FAIR      34  25  69 NW32G44   29.86R WCI  20
$$

IDZ016-017-252200-
SOUTHCENTRAL IDAHO


CITY           SKY/WX    TMP DP  RH WIND       PRES   REMARKS
JEROME         FAIR      29  23  78 W15G24    29.77R WCI  18
TWIN FALLS     CLOUDY    30  22  72 W26G37    29.77R WCI  16
$$

IDZ019>023-252200-
SOUTHEAST IDAHO


CITY           SKY/WX    TMP DP  RH WIND       PRES   REMARKS
IDAHO FALLS    CLOUDY    29  19  66 N26G33    29.68R WCI  14
POCATELLO      CLOUDY    31  21  66 N18G29    29.72R WCI  19
REXBURG        CLOUDY    28  17  63 N16G28    29.68R WCI  16
$$

IDZ006-010-011-018-031-032-252200-
CENTRAL IDAHO MOUNTAINS


CITY           SKY/WX    TMP DP  RH WIND       PRES   REMARKS
MCCALL         FAIR      26  15  63 N15G25    29.89S WCI  14
HAILEY         PTSUNNY   34  14  44 NW13G18   29.71R WCI  25
STANLEY          N/A     25  12  58 NW9G17    29.79R WCI  15
SALMON         CLOUDY    30  18  59 N13       29.87R WCI  20
CHALLIS        CLOUDY    29  16  58 N9        29.82R WCI  20
$$

IDZ002-004-006-007-026-252200-
NORTHERN IDAHO


CITY           SKY/WX    TMP DP  RH WIND       PRES   REMARKS
LEWISTON       FAIR      42  26  53 CALM      30.07S
LOWELL           N/A     37  34  89 CALM      30.09S
COEUR D`ALENE  CLOUDY    32  30  93 SW5       30.02S VSB 3/4 WCI  27
MULLAN PASS    HAZE      23  18  81 VRB5      29.85S VSB 3/4 WCI  17
$$


USA.gov is the U.S. government's official web portal to all federal, state and local government web resources and services.